Location: Chantarel
(45.1638°N, 1.7873°E)
Time: 20:42:17
(UTC+00:00)

Cosmos 1933 Rocket - Pass Details

Date: 03 March 2021
Orbit: 607 x 629 km, 82.5° (Epoch: 13 April)

Event Time Altitude Azimuth Distance (km) Brightness Sun altitude
Rises 18:55:33 0° 181° (S) 2,857 6.9 -13.6°
Reaches altitude 10° 18:57:45 10° 180° (S) 1,961 6.1 -14.0°
Maximum altitude 19:02:04 71° 96° (E) 651 3.4 -14.7°
Drops below altitude 10° 19:06:27 10° 13° (NNE) 1,989 6.1 -15.5°
Sets 19:08:42 0° 11° (N) 2,904 7.0 -15.9°
